Вернуться в каталог

STARLINK-31876

АктивенСвязьVLEO
NORAD 59938·PAYLOAD·🇺🇸 United States

Запущен Jun 1, 2024 с Cape Canaveral Space Force Station

Loading…

Ближайшие Пролёты (ближайшие 24 часа)

TLE

СвежийSource: CelesTrak SupGP

Эпоха: Sep 15, 2026, 03:13 UTC

1 59938C 24106S   26258.13451389 -.00128040  00000+0 -46395-2 0  2587
2 59938  43.0017 342.5547 0001548 262.9358 214.8087 15.27627949    17

Отслеживайте STARLINK-31876 в реальном времени с AllMySat

Download on the App Store